GW4671 Weather Reports


time (UTC)temp
C
wind
direction
speed
KPH
gust
KPH
rain 1hr
cm
rain 24hr
cm
rain mn
cm
humidity
%
barometer
mb
20260505124543 24 32 0.0 3.2 0.00 0.05 0.05 93 1011.7
20260505123040 24 0 0.0 3.2 0.00 0.05 0.05 93 1011.8
20260505121543 24 0 0.0 1.6 0.00 0.05 0.05 93 1011.8
20260505120046 25 0 0.0 0.0 0.00 0.05 0.05 92 1011.4
20260505114545 25 0 0.0 0.0 0.00 0.05 0.05 93 1011.4
20260505113045 25 0 1.6 3.2 0.00 0.05 0.05 93 1011.2
20260505111544 25 0 0.0 1.6 0.00 0.05 0.05 93 1011.2
20260505101553 26 340 0.0 3.2 0.00 0.05 0.05 91 1010.8
20260505100041 26 0 0.0 1.6 0.00 0.05 0.05 90 1010.7
20260505094540 27 0 0.0 0.0 0.00 0.05 0.05 89 1010.5
20260505093043 27 0 0.0 1.6 0.00 0.05 0.05 87 1010.1
20260505091543 27 315 0.0 3.2 0.00 0.05 0.05 86 1009.8
20260505090057 28 222 0.0 3.2 0.00 0.05 0.05 84 1009.6
20260505084548 28 0 1.6 3.2 0.00 0.43 0.05 82 1009.7
20260505083055 28 0 0.0 4.8 0.00 0.43 0.05 82 1009.5
20260505081548 28 0 1.6 6.4 0.00 0.43 0.05 81 1009.4
20260505080046 28 338 0.0 6.4 0.00 0.43 0.05 85 1009.4
20260505074545 27 0 1.6 8.0 0.00 0.43 0.05 84 1009.4
20260505073044 27 300 1.6 6.4 0.00 0.43 0.05 84 1009.2
20260505071540 27 337 1.6 6.4 0.00 0.43 0.05 85 1009.3
20260505070044 27 0 0.0 3.2 0.00 0.43 0.05 86 1009.6
20260505064544 27 0 0.0 4.8 0.03 0.43 0.05 86 1009.8
20260505063045 27 0 0.0 3.2 0.03 0.43 0.05 83 1010.1
20260505061547 26 0 0.0 3.2 0.03 0.43 0.05 84 1010.4
20260505060044 26 334 1.6 14.5 0.03 0.43 0.05 88 1010.6
20260505054545 26 53 4.8 16.1 0.00 0.41 0.03 81 1010.7
20260505053052 31 20 1.6 8.0 0.00 0.41 0.03 70 1010.5
20260505051538 31 296 1.6 9.7 0.00 0.41 0.03 66 1010.6
20260505041539 32 0 1.6 6.4 0.00 0.41 0.03 64 1011.3
20260505040040 30 0 0.0 4.8 0.00 0.41 0.03 67 1011.6
20260505034538 30 0 1.6 4.8 0.00 0.41 0.03 71 1011.8
20260505033102 31 323 1.6 4.8 0.00 0.41 0.03 64 1012.0
20260505031540 31 249 0.0 4.8 0.00 0.41 0.03 69 1012.0
20260505030039 31 0 0.0 3.2 0.00 0.41 0.03 66 1012.1
20260505024538 30 242 3.2 9.7 0.00 0.41 0.03 66 1012.1
20260505023057 31 120 3.2 8.0 0.00 0.41 0.03 65 1012.2
20260505021540 30 355 3.2 8.0 0.00 0.41 0.03 67 1012.3
20260505020046 30 338 1.6 4.8 0.00 0.41 0.03 71 1012.5
20260505014613 30 306 0.0 4.8 0.00 0.41 0.03 72 1012.6
20260505013045 29 0 1.6 6.4 0.00 0.41 0.03 68 1012.6
20260505011544 30 175 0.0 4.8 0.00 0.41 0.03 70 1012.8
20260505010043 30 235 0.0 4.8 0.00 0.41 0.03 71 1012.8
20260505004546 29 0 0.0 4.8 0.00 0.41 0.03 76 1013.0
20260505003039 29 306 1.6 4.8 0.00 0.41 0.03 73 1012.9
20260505001545 29 274 0.0 3.2 0.00 0.41 0.03 77 1013.0
20260505000047 28 0 1.6 3.2 0.00 0.41 0.03 76 1013.0
20260504234608 27 324 0.0 3.2 0.00 0.41 0.03 77 1012.9
20260504233050 27 0 0.0 3.2 0.00 0.41 0.03 78 1013.0
20260504231550 26 0 0.0 3.2 0.00 0.41 0.03 77 1012.8
20260504230039 26 13 0.0 4.8 0.00 0.41 0.03 79 1012.8
20260504224545 25 35 1.6 6.4 0.00 0.41 0.03 82 1012.6
20260504223041 23 36 0.0 1.6 0.00 0.41 0.03 92 1012.7
20260504221539 22 0 0.0 1.6 0.00 0.41 0.03 94 1012.5
20260504220053 22 0 0.0 1.6 0.00 0.41 0.03 94 1012.4
20260504214541 22 0 0.0 3.2 0.00 0.41 0.03 94 1012.3
20260504213051 22 0 0.0 0.0 0.00 0.41 0.03 94 1012.3
20260504211547 22 0 0.0 0.0 0.00 0.41 0.03 94 1012.3
20260504210052 22 0 0.0 0.0 0.00 0.41 0.03 95 1012.3
20260504204618 22 0 0.0 0.0 0.00 0.41 0.03 95 1012.0
20260504203047 23 0 0.0 0.0 0.00 0.41 0.03 94 1011.9
20260504201545 23 0 0.0 0.0 0.00 0.41 0.03 95 1011.8
20260504200050 23 0 0.0 0.0 0.00 0.41 0.03 95 1011.8
20260504194548 23 0 0.0 0.0 0.00 0.41 0.03 95 1011.7